RH
7 7 7 7 6 6 5 6 10 21 42 41 58 57 56 41 33 46 56 20 41 26 14 22 21 27 34 32 38 42 41 40 46 57 77 81 96 99 98 97 99 95 32 23
8 8 8 8 8 7 6 7 11 22 19 27 42 51 54 33 31 36 54 67 26 18 33 17 20 21 26 36 46 44 50 49 51 52 62 73 81 93 96 97 98 62 28 24
11 9 9 9 8 8 8 8 10 11 11 18 33 35 42 48 28 49 62 67 49 12 25 31 15 19 20 32 39 48 46 50 48 75 74 85 98 98 97 98 92 73 64 52
22 17 12 11 9 8 8 13 10 9 9 17 13 21 27 21 49 27 40 60 48 15 7 22 25 13 18 24 32 36 38 46 51 57 79 80 84 77 76 77 69 66 57 61
20 18 18 15 10 10 11 16 14 12 10 9 12 10 26 31 41 24 30 53 63 26 7 9 26 18 13 17 24 32 37 40 50 54 56 76 78 73 68 67 62 46 38 48
24 22 21 19 13 12 13 14 16 12 14 10 15 11 34 36 29 57 53 50 63 52 21 7 13 28 16 13 20 28 39 41 40 54 54 55 65 72 75 70 56 64 59 54
22 21 20 21 19 17 16 17 22 20 17 14 19 12 30 43 37 54 60 44 44 54 36 23 9 24 39 20 16 21 31 38 40 43 58 58 53 56 56 61 64 64 49 28
24 26 24 22 20 21 22 26 23 21 21 20 14 9 10 22 42 64 61 53 44 54 43 31 16 13 14 19 19 18 20 29 36 40 50 62 67 61 56 56 58 61 61 66
32 28 26 23 22 26 28 34 31 34 22 22 23 12 9 14 32 70 68 62 51 54 55 51 46 29 23 32 36 29 15 17 21 35 42 51 52 51 46 48 62 64 66 66
45 40 35 25 22 26 28 44 50 52 39 30 25 18 11 13 46 57 70 59 55 58 58 55 60 49 58 60 70 70 26 72 38 16 32 46 49 52 53 54 48 61 68 72
54 51 50 39 27 28 37 48 55 51 56 46 31 23 16 14 42 42 66 68 66 56 65 77 72 66 74 78 72 58 68 80 47 30 45 39 43 49 49 52 48 41 42 50
53 47 60 53 48 43 32 48 64 72 63 53 45 25 21 22 26 31 63 65 76 54 67 80 76 70 66 67 79 71 63 61 85 64 40 50 33 33 50 50 49 47 44 41
46 36 36 62 66 56 45 50 53 70 68 58 56 25 38 26 28 30 36 62 66 65 54 87 86 84 74 71 64 78 75 49 61 96 71 67 70 72 24 19 30 35 35 35
69 60 44 33 45 69 64 49 50 59 58 54 51 40 36 33 28 33 31 43 63 57 50 86 72 73 65 69 70 75 83 69 50 63 60 53 45 63 51 23 32 38 46 53
57 72 69 64 46 39 70 74 71 67 64 63 56 46 44 37 34 33 50 40 33 45 45 48 50 48 49 66 67 84 93 75 48 55 51 43 40 96 54 43 36 40 47 56
56 54 55 77 84 71 42 48 75 75 69 62 60 64 48 52 47 40 69 73 60 43 27 32 50 46 47 76 84 74 68 80 60 44 40 31 23 23 33 42 38 45 53 32
53 56 50 44 76 83 60 59 63 51 66 78 69 68 65 54 46 55 65 67 60 48 35 28 52 44 42 53 60 59 85 80 84 44 35 30 25 36 46 72 87 64 56 49
22 33 48 45 51 59 63 69 83 91 80 74 82 77 76 72 58 46 58 62 63 60 46 50 36 40 48 39 58 48 73 74 63 45 33 31 28 47 68 82 78 56 51 52
20 23 28 41 52 42 46 64 78 88 99 95 86 93 87 83 76 61 62 64 62 56 59 54 47 40 33 30 37 48 46 52 70 76 42 19 35 86 99 88 54 41 33 22
39 32 40 33 36 46 52 68 63 64 75 79 72 95 80 83 81 76 67 64 61 70 66 53 50 50 40 34 36 56 86 68 78 72 29 36 72 95 80 61 30 23 21 18
48 52 40 40 38 32 59 66 73 75 61 66 65 69 86 90 82 81 74 61 72 61 66 63 62 46 33 33 50 82 80 96 91 61 50 77 92 82 59 27 25 24 21 16
53 60 56 50 46 37 48 74 81 61 62 55 52 63 61 62 83 84 84 57 78 62 86 72 57 48 32 29 78 82 94 94 92 100 85 78 64 36 28 26 25 22 15 12
44 47 51 58 56 54 53 54 65 78 62 65 72 55 69 64 67 61 50 41 73 70 77 57 56 59 31 40 98 98 96 97 95 92 71 42 29 27 26 25 22 15 12 12
51 46 42 50 61 62 63 66 66 61 69 63 68 68 70 65 63 60 52 54 55 70 81 66 63 51 32 34 59 95 95 96 94 63 33 30 26 23 25 23 18 12 10 14
46 44 48 50 66 71 65 66 68 67 70 59 52 52 63 65 55 51 68 62 44 68 73 80 77 68 37 33 42 68 78 74 46 31 28 26 25 26 23 18 14 11 24 28
41 43 44 46 81 62 66 64 69 69 63 66 59 42 50 60 52 42 83 70 58 77 77 82 80 67 31 27 29 29 28 27 27 27 27 26 27 22 15 7 19 34 36 20
Wind_Speed
13 13 11 12 10 12 7 10 9 8 9 9 12 9 4 5 3 6 4 2 3 5 3 5 6 6 7 10 10 10 10 10 11 13 13 13 15 20 21 16 15 16 16 15
16 16 19 16 13 12 10 11 12 11 13 13 14 15 5 4 3 5 9 4 6 7 7 8 9 9 8 9 12 12 11 10 10 12 13 14 15 12 13 20 19 18 14 12
19 23 21 20 16 14 11 12 15 14 13 14 19 17 11 9 8 8 8 7 6 9 12 10 11 11 9 9 10 11 12 13 12 12 14 14 16 16 16 20 22 18 15 15
18 23 21 21 18 16 12 15 18 17 16 16 17 12 12 12 13 10 10 10 9 11 12 13 12 12 11 9 10 11 11 12 13 13 15 18 19 18 17 17 17 16 14 16
19 22 22 21 18 20 13 23 19 19 19 17 14 11 10 9 11 17 13 10 10 8 11 12 13 12 11 10 8 10 10 10 13 16 15 16 18 18 16 16 17 18 19 16
19 21 21 20 23 18 18 22 23 21 22 19 13 14 7 7 8 11 15 12 13 8 11 12 12 12 12 11 11 9 10 10 11 15 16 17 17 17 17 18 18 18 19 20
23 20 20 22 23 20 19 23 26 25 25 19 16 20 9 9 10 8 13 13 12 9 10 12 12 14 17 15 14 12 11 11 11 12 15 18 18 19 19 20 20 20 20 20
23 20 20 19 20 21 21 24 26 26 23 22 21 22 9 17 8 6 12 8 8 10 12 8 11 13 17 17 16 14 14 12 12 13 13 16 18 19 20 20 20 20 21 21
22 22 22 20 22 25 24 25 23 25 26 27 24 21 15 15 12 10 9 8 11 13 12 8 9 10 13 17 16 14 16 14 13 13 14 16 18 18 17 16 18 23 23 23
21 22 25 23 26 27 29 26 25 25 28 26 22 19 15 14 16 11 8 10 14 13 13 16 14 13 12 12 18 24 18 15 17 16 16 17 20 19 19 18 18 18 22 24
20 22 20 25 27 29 29 28 28 28 29 27 25 21 14 13 19 14 11 6 16 14 6 9 13 15 14 12 11 14 16 16 19 19 22 21 20 20 20 20 20 21 21 22
28 28 21 25 26 28 32 33 31 29 27 30 29 12 22 16 21 21 17 9 9 15 9 8 11 12 14 16 16 15 15 17 22 22 23 23 23 21 21 22 22 21 21 21
34 32 27 24 26 32 35 35 34 32 32 31 30 8 18 21 19 20 23 18 12 14 12 10 18 18 15 13 14 17 16 17 22 22 24 24 24 21 26 24 22 23 22 20
42 42 39 31 28 33 35 34 36 35 35 30 30 24 15 22 21 20 20 21 19 14 12 13 9 15 16 19 15 18 22 22 22 23 22 22 25 26 25 24 23 22 20 21
45 49 48 45 37 31 32 35 36 38 36 34 30 25 19 21 26 23 20 22 23 23 17 16 10 8 13 18 20 15 21 28 25 23 21 22 24 27 23 21 21 21 20 21
42 46 49 52 47 45 38 33 36 38 39 38 36 32 20 22 17 22 21 23 22 23 19 14 8 8 8 14 14 22 25 29 26 25 21 21 24 23 20 20 19 18 19 22
42 43 46 50 52 52 48 43 39 34 33 38 35 33 33 28 24 21 27 23 24 24 21 15 11 10 14 14 22 21 19 27 27 25 21 21 24 23 22 17 18 21 21 23
48 49 48 52 50 57 54 46 43 41 37 37 35 32 30 33 32 22 23 28 28 26 25 22 15 15 18 18 21 23 14 16 23 24 21 22 23 24 29 20 18 23 24 25
46 49 53 55 55 55 52 53 53 49 45 45 42 37 33 31 36 30 20 20 25 29 28 30 24 21 22 26 26 28 25 29 23 28 23 23 27 26 25 16 20 23 26 28
39 45 49 54 57 58 50 45 49 54 52 51 47 46 40 35 33 36 28 23 23 25 28 28 26 27 27 29 28 34 35 38 29 26 24 26 29 25 21 24 24 25 27 27
36 39 44 49 54 55 51 47 46 49 50 50 47 45 45 43 38 35 34 23 20 23 27 24 23 25 27 27 21 18 35 52 33 25 27 27 23 25 26 24 26 28 29 30
36 37 38 44 48 50 48 46 45 45 47 45 48 47 43 43 45 40 36 29 26 22 22 22 18 22 21 19 18 12 26 22 23 23 25 23 29 24 23 26 29 30 29 29
33 32 35 40 41 44 45 46 46 43 41 40 38 47 44 36 35 39 35 34 29 19 22 19 18 16 16 14 14 15 20 29 23 21 24 27 22 22 25 29 28 28 30 27
32 32 33 35 37 41 44 44 43 43 39 40 39 39 42 42 36 31 30 33 31 24 22 15 17 18 17 17 16 18 19 18 17 19 20 21 22 25 26 26 26 29 27 28
30 29 29 30 31 38 41 42 41 37 33 34 37 38 40 40 40 33 29 34 30 29 28 25 22 24 20 19 19 21 22 20 21 20 20 22 24 24 25 24 27 25 25 26
26 28 31 27 28 34 33 36 35 34 30 31 38 36 36 35 36 30 32 31 29 32 29 25 29 28 22 21 21 22 22 22 22 21 22 22 23 23 22 22 21 22 23 25
Wind_Direction
275 275 268 268 275 282 280 266 265 269 264 280 270 258 253 264 277 286 299 230 266 264 240 242 222 215 192 193 198 199 203 210 213 210 210 205 185 199 209 204 202 196 200 198
267 265 267 277 280 277 276 261 259 259 271 269 262 267 268 251 226 272 248 290 277 258 242 230 235 227 203 192 189 208 219 216 209 213 200 188 199 191 208 201 203 189 193 205
255 260 267 274 275 272 260 256 257 261 270 272 265 258 249 248 209 198 225 251 238 260 235 229 227 230 211 199 194 203 212 216 203 195 190 179 172 180 185 190 188 184 196 202
257 261 264 266 267 264 260 249 252 263 270 261 262 251 260 251 247 232 221 241 245 238 234 232 225 228 217 201 206 197 206 212 205 193 190 186 179 181 185 179 179 189 201 201
259 265 262 262 258 259 253 254 262 262 266 269 271 270 245 265 269 264 242 238 240 234 243 234 232 230 223 214 206 210 206 210 212 207 203 199 193 189 183 185 198 203 200 208
266 261 267 262 252 259 254 263 266 274 268 268 269 267 222 241 230 219 242 233 232 222 242 243 232 237 232 215 211 209 205 216 214 213 210 206 204 205 201 194 193 204 214 219
251 257 256 256 257 252 251 256 260 265 265 273 255 257 197 247 233 216 244 249 235 240 236 251 239 227 240 223 212 214 206 206 218 215 217 218 209 211 211 207 209 207 214 221
253 253 253 251 256 257 251 249 253 258 263 263 257 256 241 236 223 230 260 247 226 244 245 258 242 229 236 229 222 217 221 211 214 222 225 223 224 220 218 221 219 222 222 224
245 246 245 241 230 233 243 237 243 251 259 263 267 267 254 246 223 208 257 238 207 220 211 233 271 248 229 237 231 224 234 225 229 232 230 236 231 232 237 239 236 232 230 232
257 249 251 238 226 229 232 232 240 254 266 271 275 264 259 245 219 209 239 238 207 193 210 229 257 251 238 237 241 235 218 247 234 235 236 239 243 240 244 248 246 236 233 235
264 261 253 249 244 233 232 236 248 255 258 267 274 268 251 217 225 219 208 196 203 176 177 206 226 242 231 234 240 220 243 256 236 227 235 237 240 245 241 242 246 247 246 247
259 260 246 257 234 234 230 228 238 249 251 264 273 281 244 226 219 230 207 188 212 196 204 191 201 225 251 249 239 231 235 242 242 243 239 239 239 242 243 243 246 250 254 261
272 266 258 236 240 246 248 244 243 244 250 259 271 272 256 234 224 230 218 221 202 211 225 215 208 223 247 267 254 240 230 239 236 240 242 241 245 245 245 245 250 257 259 264
272 273 271 256 234 240 249 251 248 248 255 261 265 271 261 236 234 231 221 223 223 212 198 186 209 234 263 265 275 257 250 241 236 234 237 241 241 239 245 240 253 258 258 261
255 259 264 268 265 243 237 244 250 255 259 261 266 263 264 235 227 229 230 239 241 237 226 220 235 272 280 251 268 280 274 239 235 232 232 238 244 237 243 244 252 257 266 274
255 253 254 254 257 262 257 236 242 250 257 264 270 275 274 252 250 239 228 234 247 258 242 236 239 281 321 253 254 271 290 241 242 239 238 249 248 244 243 245 257 259 265 273
251 249 249 250 247 251 254 257 257 250 251 257 263 268 274 273 259 246 234 241 251 257 264 260 256 274 302 267 253 264 278 232 242 246 244 254 258 248 243 242 257 266 270 273
249 248 248 249 245 245 249 248 252 257 258 259 257 258 271 267 270 263 242 244 253 261 271 283 279 269 271 289 268 269 243 243 248 248 250 260 254 247 245 247 255 270 277 281
252 248 247 246 246 248 246 242 241 244 248 251 252 253 258 266 261 264 266 257 265 270 279 281 295 277 279 282 265 264 263 247 244 238 242 246 244 249 256 275 263 273 281 287
257 252 251 250 249 248 247 243 243 243 243 247 251 255 255 253 254 259 265 264 265 262 268 284 292 292 282 272 268 273 261 241 232 216 231 233 238 247 259 269 276 285 290 289
257 251 250 250 250 248 248 243 239 241 245 246 249 251 253 251 252 251 254 253 264 260 266 277 284 284 267 265 282 281 236 210 206 209 220 228 246 253 263 278 285 287 285 286
257 252 248 248 251 250 250 250 245 243 244 245 243 245 253 251 251 251 250 246 260 267 266 265 267 283 274 273 282 270 210 163 190 204 211 224 243 260 272 277 281 281 282 284
257 253 246 245 245 248 249 247 245 243 243 241 244 237 242 248 252 251 254 251 237 252 255 253 244 275 264 261 260 253 208 192 199 201 219 235 251 265 271 273 278 283 284 288
257 255 251 245 243 242 242 245 245 245 240 240 238 235 236 239 241 246 252 240 232 241 242 230 245 264 253 250 238 241 206 220 226 229 244 256 265 266 268 275 280 283 286 287
256 262 256 249 246 242 239 239 241 244 241 233 235 233 234 237 239 237 235 241 235 237 245 234 244 263 260 243 237 229 235 242 248 252 256 261 264 265 272 279 283 287 291 294
254 253 251 248 247 244 241 242 239 239 237 231 230 234 224 224 228 230 218 226 229 232 237 246 239 250 246 237 234 236 236 238 242 245 250 254 259 267 276 279 284 289 292 297